START_TIME,STEP,MOV.,M6,t_acc.,M7,t_acc.,M19,t_acc.,H36,t_acc.
1979-08-06 15:00:25.610 ,1,0,0.,12.0,0.,12.0,0.,12.0,0.,12.0
1979-08-06 15:00:37.610 ,1,0,0.,12.0,0.,12.0,0.,12.0,0.,12.0
1979-08-06 15:00:49.610 ,2,1,0.,12.0,0.,12.0,0.,12.0,0.,12.0
1979-08-06 15:01:01.610 ,2,1,0.,12.0,0.,12.0,0.,12.0,0.,12.0
1979-08-06 15:01:13.610 ,2,0,0.,12.0,0.,12.0,0.,12.0,0.,12.0
1979-08-06 15:01:25.610 ,2,0,0.,12.0,0.,12.0,0.,12.0,0.,12.0
1979-08-06 15:01:37.610 ,3,1,0.,12.0,0.,12.0,0.,12.0,0.,12.0
1979-08-06 15:01:49.610 ,3,1,0.,12.0,0.,12.0,0.,12.0,0.,12.0
1979-08-06 15:02:01.610 ,3,0,0.,12.0,0.,12.0,0.,12.0,0.,12.0
1979-08-06 15:02:13.610 ,3,0,0.,12.0,0.,12.0,0.,12.0,0.,12.0
1979-08-06 15:02:25.610 ,4,1,0.,12.0,0.,12.0,0.,12.0,0.,12.0
1979-08-06 15:02:37.610 ,4,1,0.,12.0,0.,12.0,0.,12.0,0.,12.0
1979-08-06 15:02:49.610 ,4,0,0.,12.0,0.,12.0,0.,12.0,0.,12.0
1979-08-06 15:03:01.610 ,4,0,0.,12.0,0.,12.0,0.,12.0,0.,12.0
1979-08-06 15:03:13.610 ,5,1,0.,12.0,0.,12.0,0.,12.0,0.,12.0
1979-08-06 15:03:25.610 ,5,1,0.,12.0,0.,12.0,0.,12.0,0.,12.0
1979-08-06 15:03:37.610 ,5,0,0.,12.0,0.,12.0,0.,12.0,0.,12.0
1979-08-06 15:03:49.610 ,5,0,0.,12.0,0.,12.0,0.,12.0,0.,12.0
1979-08-06 15:04:01.610 ,6,1,0.,12.0,0.,12.0,0.,12.0,0.,12.0
1979-08-06 15:04:13.610 ,6,1,0.,12.0,0.,12.0,0.,12.0,0.,12.0
1979-08-06 15:04:25.610 ,6,0,0.,12.0,0.,12.0,0.,12.0,0.,12.0
1979-08-06 15:04:37.610 ,6,0,0.,12.0,0.,12.0,0.,12.0,0.,12.0
1979-08-06 15:04:49.610 ,7,1,0.,12.0,0.,12.0,0.,12.0,0.,12.0
1979-08-06 15:05:01.610 ,7,1,0.,12.0,0.,12.0,0.,12.0,0.,12.0
1979-08-06 15:05:13.610 ,7,0,0.,12.0,0.,12.0,0.,12.0,0.,12.0
1979-08-06 15:05:25.610 ,7,0,0.,12.0,0.,12.0,0.,12.0,0.,12.0
1979-08-06 15:05:37.610 ,7,1,0.,12.0,0.,12.0,0.,12.0,0.,12.0
1979-08-06 15:05:49.610 ,7,1,0.,12.0,0.,12.0,0.,12.0,0.,12.0
1979-08-06 15:06:01.610 ,7,0,0.,12.0,0.,12.0,0.,12.0,0.,12.0
1979-08-06 15:06:13.610 ,7,0,0.,12.0,0.,12.0,0.,12.0,0.,12.0
1979-08-06 15:06:25.610 ,6,1,0.,12.0,0.,12.0,0.,12.0,0.,12.0
1979-08-06 15:06:37.610 ,6,1,0.,12.0,0.,12.0,0.,12.0,0.,12.0
1979-08-06 15:06:49.610 ,6,0,0.,12.0,0.,12.0,0.,12.0,0.,12.0
1979-08-06 15:07:01.610 ,6,0,0.,12.0,0.,12.0,0.,12.0,0.,12.0
1979-08-06 15:07:13.610 ,5,1,0.,12.0,0.,12.0,0.,12.0,0.,12.0
1979-08-06 15:07:25.610 ,5,1,0.,12.0,0.,12.0,0.,12.0,0.,12.0
1979-08-06 15:07:37.610 ,5,0,0.,12.0,0.,12.0,0.,12.0,0.,12.0
1979-08-06 15:07:49.610 ,5,0,0.,12.0,0.,12.0,0.,12.0,0.,12.0
1979-08-06 15:08:01.610 ,4,1,0.,12.0,0.,12.0,0.,12.0,0.,12.0
1979-08-06 15:08:13.610 ,4,1,0.,12.0,0.,12.0,0.,12.0,0.,12.0
1979-08-06 15:08:25.610 ,4,0,0.,12.0,0.,12.0,0.,12.0,0.,12.0
1979-08-06 15:08:37.610 ,4,0,0.,12.0,0.,12.0,0.,12.0,0.,12.0
1979-08-06 15:08:49.610 ,3,1,0.,12.0,0.,12.0,0.,12.0,0.,12.0
1979-08-06 15:09:01.610 ,3,1,0.,12.0,0.,12.0,0.,12.0,0.,12.0
1979-08-06 15:09:13.610 ,3,0,0.,12.0,0.,12.0,0.,12.0,0.,12.0
1979-08-06 15:09:25.610 ,3,0,0.,12.0,0.,12.0,0.,12.0,0.,12.0
1979-08-06 15:09:37.610 ,2,1,0.,12.0,0.,12.0,0.,12.0,0.,12.0
1979-08-06 15:09:49.610 ,2,1,0.,12.0,0.,12.0,0.,12.0,0.,12.0
1979-08-06 15:10:01.610 ,2,0,0.,12.0,0.,12.0,0.,12.0,0.,12.0
1979-08-06 15:10:13.610 ,2,0,0.,12.0,0.,12.0,0.,12.0,0.,12.0
1979-08-06 15:10:25.610 ,1,1,0.,12.0,0.,12.0,0.,12.0,0.,12.0
1979-08-06 15:10:37.610 ,1,1,0.,12.0,0.,12.0,0.,12.0,0.,12.0
1979-08-06 15:10:49.610 ,1,0,0.,12.0,0.,12.0,0.,12.0,0.,12.0
1979-08-06 15:11:01.610 ,1,0,0.,12.0,0.,12.0,0.,12.0,0.,12.0
1979-08-06 15:11:13.610 ,0,1,0.,12.0,0.,12.0,0.,12.0,0.,12.0
1979-08-06 15:11:25.610 ,0,1,0.,12.0,0.,12.0,0.,12.0,0.,12.0
1979-08-06 15:11:37.610 ,0,0,0.,12.0,0.,12.0,0.,12.0,0.,12.0
1979-08-06 15:11:49.610 ,0,0,0.,12.0,0.,12.0,0.,12.0,0.,12.0
1979-08-06 15:12:01.610 ,0,1,0.,12.0,0.,12.0,0.,12.0,0.,12.0
1979-08-06 15:12:13.610 ,0,1,0.,12.0,0.,12.0,0.,12.0,0.,12.0
1979-08-06 15:12:25.610 ,0,0,0.,12.0,0.,12.0,0.,12.0,0.,12.0
1979-08-06 15:12:37.610 ,0,0,0.,12.0,0.,12.0,0.,12.0,0.,12.0
1979-08-06 15:12:49.610 ,1,1,0.,12.0,0.,12.0,0.,12.0,0.,12.0
1979-08-06 15:13:01.610 ,1,1,0.,12.0,0.,12.0,0.,12.0,0.,12.0
1979-08-06 15:13:13.610 ,1,0,0.,12.0,0.,12.0,0.,12.0,0.,12.0
1979-08-06 15:13:25.610 ,1,0,0.,12.0,0.,12.0,0.,12.0,0.,12.0
1979-08-06 15:13:37.610 ,2,1,0.,12.0,0.,12.0,0.,12.0,0.,12.0
1979-08-06 15:13:49.610 ,2,1,0.,12.0,0.,12.0,0.,12.0,0.,12.0
1979-08-06 15:14:01.610 ,2,0,0.,12.0,0.,12.0,0.,12.0,0.,12.0
1979-08-06 15:14:13.610 ,2,0,0.,12.0,0.,12.0,0.,12.0,0.,12.0
1979-08-06 15:14:25.610 ,3,1,0.,12.0,0.,12.0,0.,12.0,0.,12.0
1979-08-06 15:14:37.610 ,3,1,0.,12.0,0.,12.0,0.,12.0,0.,12.0
1979-08-06 15:14:49.610 ,3,0,0.,12.0,0.,12.0,0.,12.0,0.,12.0
1979-08-06 15:15:01.610 ,3,0,0.,12.0,0.,12.0,0.,12.0,0.,12.0
1979-08-06 15:15:13.610 ,4,1,0.,12.0,0.,12.0,0.,12.0,0.,12.0
1979-08-06 15:15:25.610 ,4,1,0.,12.0,0.,12.0,0.,12.0,0.,12.0
1979-08-06 15:15:37.610 ,4,0,0.,12.0,0.,12.0,0.,12.0,0.,12.0
1979-08-06 15:15:49.610 ,4,0,0.,12.0,0.,12.0,0.,12.0,0.,12.0
1979-08-06 15:16:01.610 ,5,1,0.,12.0,0.,12.0,0.,12.0,0.,12.0
1979-08-06 15:16:13.610 ,5,1,0.,12.0,0.,12.0,0.,12.0,0.,12.0
1979-08-06 15:16:25.610 ,5,0,0.,12.0,0.,12.0,0.,12.0,0.,12.0
1979-08-06 15:16:37.610 ,5,0,0.,12.0,0.,12.0,0.,12.0,0.,12.0
1979-08-06 15:16:49.610 ,6,1,0.,12.0,0.,12.0,0.,12.0,0.,12.0
1979-08-06 15:17:01.610 ,6,1,0.,12.0,0.,12.0,0.,12.0,0.,12.0
1979-08-06 15:17:13.610 ,6,0,0.,12.0,0.,12.0,0.,12.0,0.,12.0
1979-08-06 15:17:25.610 ,6,0,0.,12.0,0.,12.0,0.,12.0,0.,12.0
1979-08-06 15:17:37.610 ,7,1,0.,12.0,0.,12.0,0.,12.0,0.,12.0
1979-08-06 15:17:49.610 ,7,1,0.,12.0,0.,12.0,0.,12.0,0.,12.0
1979-08-06 15:18:01.610 ,7,0,0.,12.0,0.,12.0,0.,12.0,0.,12.0
1979-08-06 15:18:13.610 ,7,0,0.,12.0,0.,12.0,0.,12.0,0.,12.0
1979-08-06 15:18:25.610 ,7,1,0.,12.0,0.,12.0,0.,12.0,0.,12.0
1979-08-06 15:18:37.610 ,7,1,0.,12.0,0.,12.0,0.,12.0,0.,12.0
1979-08-06 15:18:49.610 ,7,0,0.,12.0,0.,12.0,0.,12.0,0.,12.0
1979-08-06 15:19:01.610 ,7,0,0.,12.0,0.,12.0,0.,12.0,0.,12.0
1979-08-06 15:19:13.610 ,6,1,0.,12.0,0.,12.0,0.,12.0,0.,12.0
1979-08-06 15:19:25.610 ,6,1,0.,12.0,0.,12.0,0.,12.0,0.,12.0
1979-08-06 15:19:37.610 ,6,0,0.,12.0,0.,12.0,0.,12.0,0.,12.0
1979-08-06 15:19:49.610 ,6,0,0.,12.0,0.,12.0,0.,12.0,0.,12.0
1979-08-06 15:20:01.610 ,5,1,0.,12.0,0.,12.0,0.,12.0,0.,12.0
1979-08-06 15:20:13.610 ,5,1,0.,12.0,0.,12.0,0.,12.0,0.,12.0
1979-08-06 15:20:25.610 ,5,0,0.,12.0,0.,12.0,0.,12.0,0.,12.0
1979-08-06 15:20:37.610 ,5,0,0.,12.0,0.,12.0,0.,12.0,0.,12.0
1979-08-06 15:20:49.610 ,4,1,0.,12.0,0.,12.0,0.,12.0,0.,12.0
1979-08-06 15:21:01.610 ,4,1,0.,12.0,0.,12.0,0.,12.0,0.,12.0
1979-08-06 15:21:13.610 ,4,0,0.,12.0,0.,12.0,0.,12.0,0.,12.0
1979-08-06 15:21:25.610 ,4,0,0.,12.0,0.,12.0,0.,12.0,0.,12.0
1979-08-06 15:21:37.610 ,3,1,0.,12.0,0.,12.0,0.,12.0,0.,12.0
1979-08-06 15:21:49.610 ,3,1,0.,12.0,0.,12.0,0.,12.0,0.,12.0
1979-08-06 15:22:01.610 ,3,0,0.,12.0,0.,12.0,0.,12.0,0.,12.0
1979-08-06 15:22:13.610 ,3,0,0.,12.0,0.,12.0,0.,12.0,0.,12.0
1979-08-06 15:22:25.610 ,2,1,0.,12.0,0.,12.0,0.,12.0,0.,12.0
1979-08-06 15:22:37.610 ,2,1,0.,12.0,0.,12.0,0.,12.0,0.,12.0
1979-08-06 15:22:49.610 ,2,0,0.,12.0,0.,12.0,0.,12.0,0.,12.0
1979-08-06 15:23:01.610 ,2,0,0.,12.0,0.,12.0,0.,12.0,0.,12.0
1979-08-06 15:23:13.610 ,1,1,0.,12.0,0.,12.0,0.,12.0,0.,12.0
1979-08-06 15:23:25.610 ,1,1,0.,12.0,0.,12.0,0.,12.0,0.,12.0
1979-08-06 15:23:37.610 ,1,0,0.,12.0,0.,12.0,0.,12.0,0.,12.0
1979-08-06 15:23:49.610 ,1,0,0.,12.0,0.,12.0,0.,12.0,0.,12.0
1979-08-06 15:24:01.610 ,0,1,0.,12.0,0.,12.0,0.,12.0,0.,12.0
1979-08-06 15:24:13.610 ,0,1,0.,12.0,0.,12.0,0.,12.0,0.,12.0
1979-08-06 15:24:25.610 ,0,0,0.,12.0,0.,12.0,0.,12.0,0.,12.0
1979-08-06 15:24:37.610 ,0,0,0.,12.0,0.,12.0,0.,12.0,0.,12.0
1979-08-06 15:24:49.610 ,0,1,0.,12.0,0.,12.0,0.,12.0,0.,12.0
1979-08-06 15:25:01.610 ,0,1,0.,12.0,0.,12.0,0.,12.0,0.,12.0
1979-08-06 15:25:13.610 ,0,0,0.,12.0,0.,12.0,0.,12.0,0.,12.0
1979-08-06 15:25:25.610 ,0,0,0.,12.0,0.,12.0,0.,12.0,0.,12.0
1979-08-06 15:25:37.610 ,1,1,0.,12.0,0.,12.0,0.,12.0,0.,12.0
1979-08-06 15:25:49.610 ,1,1,0.,12.0,0.,12.0,0.,12.0,0.,12.0
1979-08-06 15:26:01.610 ,1,0,0.,12.0,0.,12.0,0.,12.0,0.,12.0
1979-08-06 15:26:13.610 ,1,0,0.,12.0,0.,12.0,0.,12.0,0.,12.0
1979-08-06 15:26:25.610 ,2,1,0.,12.0,0.,12.0,0.,12.0,0.,12.0
1979-08-06 15:26:37.610 ,2,1,0.,12.0,0.,12.0,0.,12.0,0.,12.0
1979-08-06 15:26:49.610 ,2,0,0.,12.0,0.,12.0,0.,12.0,0.,12.0
1979-08-06 15:27:01.610 ,2,0,0.,12.0,0.,12.0,0.,12.0,0.,12.0
1979-08-06 15:27:13.610 ,3,1,0.,12.0,0.,12.0,0.,12.0,0.,12.0
1979-08-06 15:27:25.610 ,3,1,0.,12.0,0.,12.0,0.,12.0,0.,12.0
1979-08-06 15:27:37.610 ,3,0,0.,12.0,0.,12.0,0.,12.0,0.,12.0
1979-08-06 15:27:49.610 ,3,0,0.,12.0,0.,12.0,0.,12.0,0.,12.0
1979-08-06 15:28:01.610 ,4,1,0.,12.0,0.,12.0,0.,12.0,0.,12.0
1979-08-06 15:28:13.610 ,4,1,0.,12.0,0.,12.0,0.,12.0,0.,12.0
1979-08-06 15:28:25.610 ,4,0,0.,12.0,0.,12.0,0.,12.0,0.,12.0
1979-08-06 15:28:37.610 ,4,0,0.,12.0,0.,12.0,0.,12.0,0.,12.0
1979-08-06 15:28:49.610 ,5,1,0.,12.0,0.,12.0,0.,12.0,0.,12.0
1979-08-06 15:29:01.610 ,5,1,0.,12.0,0.,12.0,0.,12.0,0.,12.0
1979-08-06 15:29:13.610 ,5,0,0.,12.0,0.,12.0,0.,12.0,0.,12.0
1979-08-06 15:29:25.610 ,5,0,0.,12.0,0.,12.0,0.,12.0,0.,12.0
1979-08-06 15:29:37.610 ,6,1,0.,12.0,0.,12.0,0.,12.0,0.,12.0
1979-08-06 15:29:49.610 ,6,1,0.,12.0,0.,12.0,0.,12.0,0.,12.0
1979-08-06 15:30:01.610 ,6,0,0.,12.0,0.,12.0,0.,12.0,0.,12.0
1979-08-06 15:30:13.610 ,6,0,0.,12.0,0.,12.0,0.,12.0,0.,12.0
1979-08-06 15:30:25.610 ,7,0,0.,12.0,0.,12.0,0.,12.0,0.,12.0
1979-08-06 15:30:37.610 ,7,0,0.,12.0,0.,12.0,0.,12.0,0.,12.0
1979-08-06 15:30:49.610 ,7,0,0.,12.0,0.,12.0,0.,12.0,0.,12.0
1979-08-06 15:31:01.610 ,7,0,0.,12.0,0.,12.0,0.,12.0,0.,12.0
1979-08-06 15:31:13.610 ,4,1,0.,12.0,0.,12.0,0.,12.0,0.,12.0
1979-08-06 15:31:25.610 ,4,1,0.,12.0,0.,12.0,0.,12.0,0.,12.0
1979-08-06 15:31:37.610 ,0,1,0.,12.0,0.,12.0,0.,12.0,0.,12.0
1979-08-06 15:31:49.610 ,0,1,0.,12.0,0.,12.0,0.,12.0,0.,12.0
1979-08-06 15:32:01.610 ,3,1,0.,12.0,0.,12.0,0.,12.0,0.,12.0
1979-08-06 15:32:13.610 ,3,1,0.,12.0,0.,12.0,0.,12.0,0.,12.0
1979-08-06 15:32:25.610 ,7,1,0.,12.0,0.,12.0,0.,12.0,0.,12.0
1979-08-06 15:32:37.610 ,7,1,0.,12.0,0.,12.0,0.,12.0,0.,12.0
1979-08-06 15:32:49.610 ,4,1,0.,12.0,0.,12.0,0.,12.0,0.,12.0
1979-08-06 15:33:01.610 ,4,1,0.,12.0,0.,12.0,0.,12.0,0.,12.0
1979-08-06 15:33:13.610 ,0,1,0.,12.0,0.,12.0,0.,12.0,0.,12.0
1979-08-06 15:33:25.610 ,0,1,0.,12.0,0.,12.0,0.,12.0,0.,12.0
1979-08-06 15:33:37.610 ,3,1,0.,12.0,0.,12.0,0.,12.0,0.,12.0
1979-08-06 15:33:49.610 ,3,1,0.,12.0,0.,12.0,0.,12.0,0.,12.0
1979-08-06 15:34:01.610 ,7,1,0.,12.0,0.,12.0,0.,12.0,0.,12.0
1979-08-06 15:34:13.610 ,7,1,0.,12.0,0.,12.0,0.,12.0,0.,12.0
1979-08-06 15:34:25.610 ,4,1,0.,12.0,0.,12.0,0.,12.0,0.,12.0
1979-08-06 15:34:37.610 ,4,1,0.,12.0,0.,12.0,0.,12.0,0.,12.0
1979-08-06 15:34:49.610 ,0,1,0.,12.0,0.,12.0,0.,12.0,0.,12.0
1979-08-06 15:35:01.610 ,0,1,0.,12.0,0.,12.0,0.,12.0,0.,12.0
1979-08-06 15:35:13.610 ,3,1,0.,12.0,0.,12.0,0.,12.0,0.,12.0
1979-08-06 15:35:25.610 ,3,1,0.,12.0,0.,12.0,0.,12.0,0.,12.0
1979-08-06 15:35:37.610 ,7,1,0.,12.0,0.,12.0,0.,12.0,0.,12.0
1979-08-06 15:35:49.610 ,7,1,0.,12.0,0.,12.0,0.,12.0,0.,12.0
1979-08-06 15:36:01.610 ,4,1,0.,12.0,0.,12.0,0.,12.0,0.,12.0
1979-08-06 15:36:13.610 ,4,1,0.,12.0,0.,12.0,0.,12.0,0.,12.0
1979-08-06 15:36:25.610 ,0,1,0.,12.0,0.,12.0,0.,12.0,0.,12.0
1979-08-06 15:36:37.610 ,0,1,0.,12.0,0.,12.0,0.,12.0,1.,12.0
1979-08-06 15:36:49.610 ,3,1,0.,12.0,0.,12.0,0.,12.0,0.,12.0
1979-08-06 15:37:01.610 ,3,1,0.,12.0,0.,12.0,0.,12.0,0.,12.0
1979-08-06 15:37:13.610 ,7,1,0.,12.0,0.,12.0,0.,12.0,0.,12.0
1979-08-06 15:37:25.610 ,7,1,0.,12.0,0.,12.0,0.,12.0,0.,12.0
1979-08-06 15:37:37.610 ,4,1,0.,12.0,0.,12.0,0.,12.0,0.,12.0
1979-08-06 15:37:49.610 ,4,1,0.,12.0,0.,12.0,0.,12.0,0.,12.0
1979-08-06 15:38:01.610 ,0,1,0.,12.0,0.,12.0,0.,12.0,0.,12.0
1979-08-06 15:38:13.610 ,0,1,0.,12.0,0.,12.0,0.,12.0,0.,12.0
1979-08-06 15:38:25.610 ,3,1,1.,12.0,0.,12.0,0.,12.0,0.,12.0
1979-08-06 15:38:37.610 ,3,1,0.,12.0,0.,12.0,0.,12.0,0.,12.0
1979-08-06 15:38:49.610 ,7,1,0.,12.0,0.,12.0,0.,12.0,0.,12.0
1979-08-06 15:39:01.610 ,7,1,0.,12.0,0.,12.0,0.,12.0,0.,12.0
1979-08-06 15:39:13.610 ,4,1,0.,12.0,0.,12.0,0.,12.0,0.,12.0
1979-08-06 15:39:25.610 ,4,1,0.,12.0,0.,12.0,0.,12.0,0.,12.0
1979-08-06 15:39:37.610 ,0,1,0.,12.0,0.,12.0,0.,12.0,0.,12.0
1979-08-06 15:39:49.610 ,0,1,0.,12.0,0.,12.0,0.,12.0,0.,12.0
1979-08-06 15:40:01.610 ,3,1,0.,12.0,0.,12.0,0.,12.0,0.,12.0
1979-08-06 15:40:13.610 ,3,1,0.,12.0,0.,12.0,0.,12.0,0.,12.0
1979-08-06 15:40:25.610 ,7,1,0.,12.0,0.,12.0,0.,12.0,0.,12.0
1979-08-06 15:40:37.610 ,7,1,0.,12.0,0.,12.0,0.,12.0,0.,12.0
1979-08-06 15:40:49.610 ,4,1,0.,12.0,0.,12.0,0.,12.0,0.,12.0
1979-08-06 15:41:01.610 ,4,1,0.,12.0,0.,12.0,0.,12.0,0.,12.0
1979-08-06 15:41:13.610 ,0,1,0.,12.0,0.,12.0,0.,12.0,0.,12.0
1979-08-06 15:41:25.610 ,0,1,0.,12.0,0.,12.0,0.,12.0,0.,12.0
1979-08-06 15:41:37.610 ,0,0,0.,12.0,0.,12.0,0.,12.0,0.,12.0
1979-08-06 15:41:49.610 ,0,0,0.,12.0,0.,12.0,0.,12.0,0.,12.0
1979-08-06 15:42:01.610 ,0,0,0.,12.0,0.,12.0,0.,12.0,0.,12.0
1979-08-06 15:42:13.610 ,0,0,0.,12.0,0.,12.0,0.,12.0,0.,12.0
1979-08-06 15:42:25.610 ,5,1,0.,12.0,0.,12.0,0.,12.0,0.,12.0
1979-08-06 15:42:37.610 ,5,1,0.,12.0,0.,12.0,0.,12.0,0.,12.0
1979-08-06 15:42:49.610 ,5,0,0.,12.0,0.,12.0,0.,12.0,0.,12.0
1979-08-06 15:43:01.610 ,5,0,0.,12.0,0.,12.0,0.,12.0,0.,12.0
1979-08-06 15:43:13.610 ,4,1,0.,12.0,0.,12.0,0.,12.0,0.,12.0
1979-08-06 15:43:25.610 ,4,1,0.,12.0,0.,12.0,0.,12.0,0.,12.0
1979-08-06 15:43:37.610 ,4,0,0.,12.0,0.,12.0,0.,12.0,0.,12.0
1979-08-06 15:43:49.610 ,4,0,0.,12.0,0.,12.0,0.,12.0,0.,12.0
1979-08-06 15:44:01.610 ,3,1,0.,12.0,0.,12.0,0.,12.0,0.,12.0
1979-08-06 15:44:13.610 ,3,1,0.,12.0,0.,12.0,0.,12.0,0.,12.0
1979-08-06 15:44:25.610 ,3,0,0.,12.0,0.,12.0,0.,12.0,0.,12.0
1979-08-06 15:44:37.610 ,3,0,0.,12.0,0.,12.0,0.,12.0,0.,12.0
1979-08-06 15:44:49.610 ,2,1,0.,12.0,0.,12.0,0.,12.0,0.,12.0
1979-08-06 15:45:01.610 ,2,1,0.,12.0,0.,12.0,0.,12.0,0.,12.0
1979-08-06 15:45:13.610 ,2,0,0.,12.0,0.,12.0,0.,12.0,0.,12.0
1979-08-06 15:45:25.610 ,2,0,0.,12.0,0.,12.0,0.,12.0,0.,12.0
1979-08-06 15:45:37.610 ,1,1,0.,12.0,0.,12.0,0.,12.0,0.,12.0
1979-08-06 15:45:49.610 ,1,1,0.,12.0,0.,12.0,0.,12.0,0.,12.0
1979-08-06 15:46:01.610 ,1,0,0.,12.0,0.,12.0,0.,12.0,0.,12.0
1979-08-06 15:46:13.610 ,1,0,0.,12.0,0.,12.0,0.,12.0,0.,12.0
1979-08-06 15:46:25.610 ,0,1,0.,12.0,0.,12.0,0.,12.0,0.,12.0
1979-08-06 15:46:37.610 ,0,1,0.,12.0,0.,12.0,0.,12.0,0.,12.0
1979-08-06 15:46:49.610 ,0,0,1.,12.0,0.,12.0,0.,12.0,0.,12.0
1979-08-06 15:47:01.610 ,0,0,0.,12.0,0.,12.0,0.,12.0,0.,12.0
1979-08-06 15:47:13.610 ,0,1,0.,12.0,0.,12.0,0.,12.0,0.,12.0
1979-08-06 15:47:25.610 ,0,1,0.,12.0,0.,12.0,0.,12.0,0.,12.0
1979-08-06 15:47:37.610 ,0,0,0.,12.0,0.,12.0,0.,12.0,0.,12.0
1979-08-06 15:47:49.610 ,0,0,0.,12.0,0.,12.0,0.,12.0,0.,12.0
1979-08-06 15:48:01.610 ,1,1,0.,12.0,0.,12.0,0.,12.0,0.,12.0
1979-08-06 15:48:13.610 ,1,1,0.,12.0,0.,12.0,0.,12.0,0.,12.0
1979-08-06 15:48:25.610 ,1,0,0.,12.0,0.,12.0,0.,12.0,0.,12.0
1979-08-06 15:48:37.610 ,1,0,0.,12.0,0.,12.0,0.,12.0,0.,12.0
1979-08-06 15:48:49.610 ,2,1,0.,12.0,0.,12.0,0.,12.0,0.,12.0
1979-08-06 15:49:01.610 ,2,1,0.,12.0,0.,12.0,0.,12.0,0.,12.0
1979-08-06 15:49:13.610 ,2,0,0.,12.0,0.,12.0,0.,12.0,0.,12.0
1979-08-06 15:49:25.610 ,2,0,0.,12.0,0.,12.0,0.,12.0,0.,12.0
1979-08-06 15:49:37.610 ,3,1,0.,12.0,0.,12.0,0.,12.0,0.,12.0
1979-08-06 15:49:49.610 ,3,1,0.,12.0,0.,12.0,0.,12.0,0.,12.0
1979-08-06 15:50:01.610 ,3,0,0.,12.0,0.,12.0,0.,12.0,0.,12.0
1979-08-06 15:50:13.610 ,3,0,0.,12.0,0.,12.0,0.,12.0,0.,12.0
1979-08-06 15:50:25.610 ,4,1,0.,12.0,0.,12.0,0.,12.0,0.,12.0
1979-08-06 15:50:37.610 ,4,1,0.,12.0,0.,12.0,0.,12.0,0.,12.0
1979-08-06 15:50:49.610 ,4,0,0.,12.0,0.,12.0,0.,12.0,0.,12.0
1979-08-06 15:51:01.610 ,4,0,0.,12.0,0.,12.0,0.,12.0,0.,12.0
1979-08-06 15:51:13.610 ,5,1,0.,12.0,0.,12.0,0.,12.0,0.,12.0
1979-08-06 15:51:25.610 ,5,1,0.,12.0,0.,12.0,0.,12.0,0.,12.0
1979-08-06 15:51:37.610 ,5,0,0.,12.0,0.,12.0,0.,12.0,0.,12.0
1979-08-06 15:51:49.610 ,5,0,0.,12.0,0.,12.0,0.,12.0,0.,12.0
1979-08-06 15:52:01.610 ,6,1,0.,12.0,0.,12.0,0.,12.0,0.,12.0
1979-08-06 15:52:13.610 ,6,1,0.,12.0,0.,12.0,0.,12.0,0.,12.0
1979-08-06 15:52:25.610 ,6,0,0.,12.0,0.,12.0,0.,12.0,0.,12.0
1979-08-06 15:52:37.610 ,6,0,0.,12.0,0.,12.0,0.,12.0,0.,12.0
1979-08-06 15:52:49.610 ,7,1,0.,12.0,0.,12.0,0.,12.0,0.,12.0
1979-08-06 15:53:01.610 ,7,1,0.,12.0,0.,12.0,0.,12.0,0.,12.0
1979-08-06 15:53:13.610 ,7,0,0.,12.0,0.,12.0,0.,12.0,0.,12.0
1979-08-06 15:53:25.610 ,7,0,0.,12.0,0.,12.0,0.,12.0,0.,12.0
1979-08-06 15:53:37.610 ,7,1,0.,12.0,0.,12.0,0.,12.0,0.,12.0
1979-08-06 15:53:49.610 ,7,1,0.,12.0,0.,12.0,0.,12.0,0.,12.0
1979-08-06 15:54:01.610 ,7,0,0.,12.0,0.,12.0,0.,12.0,0.,12.0
1979-08-06 15:54:13.610 ,7,0,0.,12.0,0.,12.0,0.,12.0,0.,12.0
1979-08-06 15:54:25.610 ,6,1,0.,12.0,0.,12.0,0.,12.0,0.,12.0
1979-08-06 15:54:37.610 ,6,1,0.,12.0,0.,12.0,0.,12.0,0.,12.0
1979-08-06 15:54:49.610 ,6,0,0.,12.0,0.,12.0,0.,12.0,0.,12.0
1979-08-06 15:55:01.610 ,6,0,0.,12.0,0.,12.0,0.,12.0,0.,12.0
1979-08-06 15:55:13.610 ,5,1,0.,12.0,0.,12.0,0.,12.0,0.,12.0
1979-08-06 15:55:25.610 ,5,1,0.,12.0,0.,12.0,0.,12.0,0.,12.0
1979-08-06 15:55:37.610 ,5,0,0.,12.0,0.,12.0,0.,12.0,0.,12.0
1979-08-06 15:55:49.610 ,5,0,0.,12.0,0.,12.0,0.,12.0,0.,12.0
1979-08-06 15:56:01.610 ,4,1,0.,12.0,0.,12.0,0.,12.0,0.,12.0
1979-08-06 15:56:13.610 ,4,1,0.,12.0,0.,12.0,0.,12.0,0.,12.0
1979-08-06 15:56:25.610 ,4,0,0.,12.0,0.,12.0,0.,12.0,0.,12.0
1979-08-06 15:56:37.610 ,4,0,0.,12.0,0.,12.0,0.,12.0,0.,12.0
1979-08-06 15:56:49.610 ,3,1,0.,12.0,0.,12.0,0.,12.0,0.,12.0
1979-08-06 15:57:01.610 ,3,1,0.,12.0,0.,12.0,0.,12.0,0.,12.0
1979-08-06 15:57:13.610 ,3,0,0.,12.0,0.,12.0,0.,12.0,0.,12.0
1979-08-06 15:57:25.610 ,3,0,0.,12.0,0.,12.0,0.,12.0,0.,12.0
1979-08-06 15:57:37.610 ,2,1,0.,12.0,0.,12.0,0.,12.0,0.,12.0
1979-08-06 15:57:49.610 ,2,1,0.,12.0,0.,12.0,0.,12.0,0.,12.0
1979-08-06 15:58:01.610 ,2,0,0.,12.0,0.,12.0,0.,12.0,0.,12.0
1979-08-06 15:58:13.610 ,2,0,0.,12.0,0.,12.0,0.,12.0,0.,12.0
1979-08-06 15:58:25.610 ,1,1,0.,12.0,0.,12.0,0.,12.0,0.,12.0
1979-08-06 15:58:37.610 ,1,1,0.,12.0,0.,12.0,0.,12.0,0.,12.0
1979-08-06 15:58:49.610 ,1,0,0.,12.0,0.,12.0,0.,12.0,0.,12.0
1979-08-06 15:59:01.610 ,1,0,0.,12.0,0.,12.0,0.,12.0,0.,12.0
1979-08-06 15:59:13.610 ,0,1,0.,12.0,0.,12.0,0.,12.0,0.,12.0
1979-08-06 15:59:25.610 ,0,1,0.,12.0,0.,12.0,0.,12.0,0.,12.0
1979-08-06 15:59:37.610 ,0,0,0.,12.0,0.,12.0,0.,12.0,0.,12.0
1979-08-06 15:59:49.610 ,0,0,0.,12.0,0.,12.0,0.,12.0,0.,12.0
1979-08-06 16:00:01.610 ,0,1,0.,12.0,0.,12.0,0.,12.0,0.,12.0
1979-08-06 16:00:13.610 ,0,1,0.,12.0,0.,12.0,0.,12.0,0.,12.0
1979-08-06 16:00:25.610 ,0,0,0.,12.0,0.,12.0,0.,12.0,0.,12.0
1979-08-06 16:00:37.610 ,0,0,0.,12.0,0.,12.0,0.,12.0,0.,12.0
1979-08-06 16:00:49.610 ,1,1,0.,12.0,0.,12.0,0.,12.0,0.,12.0
1979-08-06 16:01:01.610 ,1,1,0.,12.0,0.,12.0,0.,12.0,0.,12.0
1979-08-06 16:01:13.610 ,1,0,0.,12.0,0.,12.0,0.,12.0,0.,12.0
1979-08-06 16:01:25.610 ,1,0,0.,12.0,0.,12.0,0.,12.0,0.,12.0
1979-08-06 16:01:37.610 ,2,1,0.,12.0,0.,12.0,0.,12.0,0.,12.0
1979-08-06 16:01:49.610 ,2,1,0.,12.0,0.,12.0,0.,12.0,0.,12.0
1979-08-06 16:02:01.610 ,2,0,0.,12.0,0.,12.0,0.,12.0,0.,12.0
1979-08-06 16:02:13.610 ,2,0,0.,12.0,0.,12.0,0.,12.0,0.,12.0
1979-08-06 16:02:25.610 ,3,1,0.,12.0,0.,12.0,0.,12.0,0.,12.0
1979-08-06 16:02:37.610 ,3,1,0.,12.0,0.,12.0,0.,12.0,0.,12.0
1979-08-06 16:02:49.610 ,3,0,0.,12.0,0.,12.0,0.,12.0,0.,12.0
1979-08-06 16:03:01.610 ,3,0,0.,12.0,0.,12.0,0.,12.0,0.,12.0
1979-08-06 16:03:13.610 ,4,1,0.,12.0,0.,12.0,0.,12.0,0.,12.0
1979-08-06 16:03:25.610 ,4,1,0.,12.0,0.,12.0,0.,12.0,0.,12.0
1979-08-06 16:03:37.610 ,4,0,0.,12.0,0.,12.0,0.,12.0,0.,12.0
1979-08-06 16:03:49.610 ,4,0,0.,12.0,0.,12.0,0.,12.0,0.,12.0
1979-08-06 16:04:01.610 ,5,1,0.,12.0,0.,12.0,0.,12.0,0.,12.0
1979-08-06 16:04:13.610 ,5,1,0.,12.0,0.,12.0,0.,12.0,0.,12.0
1979-08-06 16:04:25.610 ,5,0,0.,12.0,0.,12.0,0.,12.0,0.,12.0
1979-08-06 16:04:37.610 ,5,0,0.,12.0,0.,12.0,0.,12.0,0.,12.0
1979-08-06 16:04:49.610 ,6,1,0.,12.0,0.,12.0,0.,12.0,0.,12.0
1979-08-06 16:05:01.610 ,6,1,0.,12.0,0.,12.0,0.,12.0,0.,12.0
1979-08-06 16:05:13.610 ,6,0,0.,12.0,0.,12.0,0.,12.0,0.,12.0
1979-08-06 16:05:25.610 ,6,0,0.,12.0,0.,12.0,0.,12.0,0.,12.0
1979-08-06 16:05:37.610 ,7,1,0.,12.0,0.,12.0,0.,12.0,0.,12.0
1979-08-06 16:05:49.610 ,7,1,0.,12.0,0.,12.0,0.,12.0,0.,12.0
1979-08-06 16:06:01.610 ,7,0,0.,12.0,0.,12.0,0.,12.0,0.,12.0
1979-08-06 16:06:13.610 ,7,0,0.,12.0,0.,12.0,0.,12.0,0.,12.0
1979-08-06 16:06:25.610 ,7,1,0.,12.0,0.,12.0,0.,12.0,0.,12.0
1979-08-06 16:06:37.610 ,7,1,0.,12.0,0.,12.0,0.,12.0,0.,12.0
1979-08-06 16:06:49.610 ,7,0,0.,12.0,0.,12.0,0.,12.0,0.,12.0
1979-08-06 16:07:01.610 ,7,0,0.,12.0,0.,12.0,0.,12.0,0.,12.0
1979-08-06 16:07:13.610 ,6,1,0.,12.0,0.,12.0,0.,12.0,0.,12.0
1979-08-06 16:07:25.610 ,6,1,0.,12.0,0.,12.0,0.,12.0,0.,12.0
1979-08-06 16:07:37.610 ,6,0,0.,12.0,0.,12.0,0.,12.0,0.,12.0
1979-08-06 16:07:49.610 ,6,0,0.,12.0,0.,12.0,0.,12.0,0.,12.0
1979-08-06 16:08:01.610 ,5,1,0.,12.0,0.,12.0,0.,12.0,0.,12.0
1979-08-06 16:08:13.610 ,5,1,0.,12.0,0.,12.0,0.,12.0,0.,12.0
1979-08-06 16:08:25.610 ,5,0,0.,12.0,0.,12.0,0.,12.0,0.,12.0
1979-08-06 16:08:37.610 ,5,0,0.,12.0,0.,12.0,0.,12.0,0.,12.0
1979-08-06 16:08:49.610 ,4,1,0.,12.0,0.,12.0,0.,12.0,0.,12.0
1979-08-06 16:09:01.610 ,4,1,0.,12.0,0.,12.0,0.,12.0,0.,12.0
1979-08-06 16:09:13.610 ,4,0,0.,12.0,0.,12.0,0.,12.0,0.,12.0
1979-08-06 16:09:25.610 ,4,0,0.,12.0,0.,12.0,0.,12.0,0.,12.0
1979-08-06 16:09:37.610 ,3,1,0.,12.0,0.,12.0,0.,12.0,0.,12.0
1979-08-06 16:09:49.610 ,3,1,0.,12.0,0.,12.0,0.,12.0,0.,12.0
1979-08-06 16:10:01.610 ,3,0,0.,12.0,0.,12.0,0.,12.0,0.,12.0
1979-08-06 16:10:13.610 ,3,0,0.,12.0,0.,12.0,0.,12.0,0.,12.0
1979-08-06 16:10:25.610 ,2,1,0.,12.0,0.,12.0,0.,12.0,0.,12.0
1979-08-06 16:10:37.610 ,2,1,0.,12.0,0.,12.0,0.,12.0,0.,12.0
1979-08-06 16:10:49.610 ,2,0,0.,12.0,0.,12.0,0.,12.0,0.,12.0
1979-08-06 16:11:01.610 ,2,0,0.,12.0,0.,12.0,0.,12.0,0.,12.0
1979-08-06 16:11:13.610 ,1,1,0.,12.0,0.,12.0,0.,12.0,0.,12.0
1979-08-06 16:11:25.610 ,1,1,0.,12.0,0.,12.0,0.,12.0,0.,12.0
1979-08-06 16:11:37.610 ,1,0,0.,12.0,0.,12.0,0.,12.0,0.,12.0
1979-08-06 16:11:49.610 ,1,0,0.,12.0,0.,12.0,0.,12.0,0.,12.0
1979-08-06 16:12:01.610 ,0,1,0.,12.0,0.,12.0,0.,12.0,0.,12.0
1979-08-06 16:12:13.610 ,0,1,0.,12.0,0.,12.0,0.,12.0,0.,12.0
1979-08-06 16:12:25.610 ,0,0,0.,12.0,0.,12.0,0.,12.0,0.,12.0
1979-08-06 16:12:37.610 ,0,0,0.,12.0,0.,12.0,0.,12.0,0.,12.0
1979-08-06 16:12:49.610 ,0,1,0.,12.0,0.,12.0,0.,12.0,0.,12.0
1979-08-06 16:13:01.610 ,0,1,0.,12.0,0.,12.0,0.,12.0,0.,12.0
1979-08-06 16:13:13.610 ,0,0,0.,12.0,0.,12.0,0.,12.0,0.,12.0
1979-08-06 16:13:25.610 ,0,0,0.,12.0,0.,12.0,0.,12.0,0.,12.0
1979-08-06 16:13:37.610 ,1,1,0.,12.0,0.,12.0,0.,12.0,0.,12.0
1979-08-06 16:13:49.610 ,1,1,0.,12.0,0.,12.0,0.,12.0,0.,12.0
1979-08-06 16:14:01.610 ,1,0,0.,12.0,0.,12.0,0.,12.0,0.,12.0
1979-08-06 16:14:13.610 ,1,0,0.,12.0,0.,12.0,0.,12.0,0.,12.0
1979-08-06 16:14:25.610 ,2,1,0.,12.0,0.,12.0,1.,12.0,0.,12.0
1979-08-06 16:14:37.610 ,2,1,0.,12.0,0.,12.0,0.,12.0,0.,12.0
1979-08-06 16:14:49.610 ,2,0,0.,12.0,0.,12.0,0.,12.0,0.,12.0
1979-08-06 16:15:01.610 ,2,0,0.,12.0,0.,12.0,0.,12.0,0.,12.0
1979-08-06 16:15:13.610 ,3,1,0.,12.0,0.,12.0,0.,12.0,0.,12.0
1979-08-06 16:15:25.610 ,3,1,0.,12.0,0.,12.0,0.,12.0,0.,12.0
1979-08-06 16:15:37.610 ,3,0,0.,12.0,0.,12.0,0.,12.0,0.,12.0
1979-08-06 16:15:49.610 ,3,0,0.,12.0,0.,12.0,0.,12.0,0.,12.0
1979-08-06 16:16:01.610 ,4,1,0.,12.0,0.,12.0,0.,12.0,0.,12.0
1979-08-06 16:16:13.610 ,4,1,0.,12.0,0.,12.0,0.,12.0,0.,12.0
1979-08-06 16:16:25.610 ,4,0,0.,12.0,0.,12.0,0.,12.0,0.,12.0
1979-08-06 16:16:37.610 ,4,0,0.,12.0,0.,12.0,0.,12.0,0.,12.0
1979-08-06 16:16:49.610 ,5,1,0.,12.0,0.,12.0,0.,12.0,0.,12.0
1979-08-06 16:17:01.610 ,5,1,0.,12.0,0.,12.0,0.,12.0,0.,12.0
1979-08-06 16:17:13.610 ,5,0,0.,12.0,0.,12.0,0.,12.0,0.,12.0
1979-08-06 16:17:25.610 ,5,0,0.,12.0,0.,12.0,0.,12.0,0.,12.0